Regional Weather Roundup
Issued by NWS Charleston, WV

Home | Current Version | Previous Version | Graphics & Text | Print | Product List | Glossary On
Versions: 1 2 3 4 5 6 7 8 9 10 11 12 13 14 15 16 17 18 19 20 21 22 23 24 25 26 27 28 29 30 31 32 33 34 35 36 37 38 39 40 41 42 43 44 45 46 47 48 49 50
000
ASUS41 KRLX 131910
RWRRLX
West Virginia Regional Weather Roundup
National Weather Service Charleston WV
300 PM EDT SUN JUL 13 2014

Note: "fair" indicates few or no clouds below 12,000 feet with no
significant weather and/or obstructions to visibility.

WVZ003-132000-
Northern Panhandle of West Virginia

CITY           SKY/WX    TMP DP  RH WIND       PRES   REMARKS
WHEELING       PTSUNNY   83  70  64 SW17      29.94F
$$

WVZ009-132000-
Northwest West Virginia

CITY           SKY/WX    TMP DP  RH WIND       PRES   REMARKS
PARKERSBURG    PTSUNNY   89  70  53 SW13      29.96F
$$

WVZ006-132000-
Western West Virginia

CITY           SKY/WX    TMP DP  RH WIND       PRES   REMARKS
HUNTINGTON     MOSUNNY   91  67  44 W10G21    29.98F
$$

WVZ015-132000-
West Central West Virginia

CITY           SKY/WX    TMP DP  RH WIND       PRES   REMARKS
CHARLESTON     MOSUNNY   92  67  43 SW15      29.99F
$$

WVZ031-132000-
North Central West Virginia

CITY           SKY/WX    TMP DP  RH WIND       PRES   REMARKS
CLARKSBURG     PTSUNNY   87  65  47 SW15      29.98F
MORGANTOWN     PTSUNNY   87  66  49 SW10      29.98F
$$

WVZ035-042-045-132000-
South Central West Virginia

CITY           SKY/WX    TMP DP  RH WIND       PRES   REMARKS
BECKLEY        MOSUNNY   85  64  49 W12       30.13F
BLUEFIELD      CLOUDY    83  62  49 W8        30.17F
LEWISBURG      MOSUNNY   88  59  36 SW12      30.11F
$$

WVZ047-132000-
Northern Mountains of West Virginia

CITY           SKY/WX    TMP DP  RH WIND       PRES   REMARKS
ELKINS         PTSUNNY   86  62  44 W10G17    30.06F
$$

WVZ052-132000-
Eastern Panhandle of West Virginia

CITY           SKY/WX    TMP DP  RH WIND       PRES   REMARKS
MARTINSBURG    CLOUDY    83  70  64 S6        29.98F
PETERSBURG     CLOUDY    87  57  36 SW3       29.99F
$$


USA.gov is the U.S. government's official web portal to all federal, state and local government web resources and services.